sat.trackr.live / text

‹ back to catalog

STARLINK-36434

NORAD 67322 · 2026-002T

PAYLOAD ACTIVE UNKNOWN

§ Identity

Operator
Country
US
Launch date
2026-01-04
Launch site
AFETR
Launch vehicle
Mass (kg)
RCS (m²)

Purposes: comms

External: N2YO · Heavens-Above · Gunter

§ Orbital elements

Epoch: 2026-05-24T14:12:07.078176Z

Period
94.27 min
Inclination
43.0004°
Eccentricity
0.0000079
Mean motion
15.27570288 rev/d
Perigee alt
483.0 km
Apogee alt
483.1 km
Semi-major
6,861.2 km
B*
6.3734e-4
RAAN
256.9178°
Arg perigee
229.0260°
Mean anomaly
131.0584°
Rev number
2,268

§ Raw data

STARLINK-364341 67322U 26002T   26144.59174859  .00017312  00000+0  63734-3 0  99942 67322  43.0004 256.9178 0000079 229.0260 131.0584 15.27570288 22683

JSON: /api/v1/satellites/67322 · /tle

For live sub-satellite position, see the globe view (requires WebGL).

§ Visibility from observer

Set your observer location to see the next 7 days of passes ≥ 10°. The values pass through the URL so the page stays shareable.

No JS? Fill the form by hand. The geolocation button needs JavaScript.